Location: Street
(51.1247°N, 2.7429°W)
Time: 08:56:44
(UTC+01:00)

PCSat - Pass Details

Date: 01 April 2023
Orbit: 783 x 794 km, 67.1° (Epoch: 29 May)

Event Time Altitude Azimuth Distance (km) Brightness Sun altitude
Rises 20:35:49 0° 301° (WNW) 3,294 14.7 -8.8°
Reaches altitude 10° 20:39:24 10° 325° (NW) 2,367 12.9 -9.3°
Maximum altitude 20:42:24 15° 359° (N) 2,052 12.0 -9.8°
Drops below altitude 10° 20:45:25 10° 33° (NNE) 2,371 11.9 -10.2°
Sets 20:49:00 0° 57° (ENE) 3,302 12.4 -10.7°
